Year,Month,Day,Hour,Minute,Value (Times are PST for temperature in C)
2014,08,31,00,00,13.10
2014,08,31,00,01,13.10
2014,08,31,00,02,13.10
2014,08,31,00,03,13.10
2014,08,31,00,04,13.10
2014,08,31,00,05,13.00
2014,08,31,00,06,13.00
2014,08,31,00,07,13.00
2014,08,31,00,08,13.00
2014,08,31,00,09,13.00
2014,08,31,00,10,13.00
2014,08,31,00,11,13.00
2014,08,31,00,12,13.00
2014,08,31,00,13,13.00
2014,08,31,00,14,13.00
2014,08,31,00,15,13.00
2014,08,31,00,16,13.00
2014,08,31,00,17,13.00
2014,08,31,00,18,12.90
2014,08,31,00,19,12.90
2014,08,31,00,20,12.90
2014,08,31,00,21,12.90
2014,08,31,00,22,12.90
2014,08,31,00,23,12.80
2014,08,31,00,24,12.80
2014,08,31,00,25,12.80
2014,08,31,00,26,12.80
2014,08,31,00,27,12.80
2014,08,31,00,28,12.80
2014,08,31,00,29,12.80
2014,08,31,00,30,12.80
2014,08,31,00,31,12.80
2014,08,31,00,32,12.80
2014,08,31,00,33,12.80
2014,08,31,00,34,12.80
2014,08,31,00,35,12.80
2014,08,31,00,36,12.80
2014,08,31,00,37,12.80
2014,08,31,00,38,12.80
2014,08,31,00,39,12.80
2014,08,31,00,40,12.80
2014,08,31,00,41,12.80
2014,08,31,00,42,12.80
2014,08,31,00,43,12.80
2014,08,31,00,44,12.80
2014,08,31,00,45,12.80
2014,08,31,00,46,12.80
2014,08,31,00,47,12.80
2014,08,31,00,48,12.80
2014,08,31,00,49,12.80
2014,08,31,00,50,12.70
2014,08,31,00,51,12.70
2014,08,31,00,52,12.70
2014,08,31,00,53,12.70
2014,08,31,00,54,12.70
2014,08,31,00,55,12.70
2014,08,31,00,56,12.70
2014,08,31,00,57,12.60
2014,08,31,00,58,12.60
2014,08,31,00,59,12.60
2014,08,31,01,00,12.60
2014,08,31,01,01,12.60
2014,08,31,01,02,12.60
2014,08,31,01,03,12.60
2014,08,31,01,04,12.60
2014,08,31,01,05,12.60
2014,08,31,01,06,12.70
2014,08,31,01,07,12.70
2014,08,31,01,08,12.60
2014,08,31,01,09,12.60
2014,08,31,01,10,12.60
2014,08,31,01,11,12.60
2014,08,31,01,12,12.60
2014,08,31,01,13,12.60
2014,08,31,01,14,12.60
2014,08,31,01,15,12.60
2014,08,31,01,16,12.60
2014,08,31,01,17,12.60
2014,08,31,01,18,12.60
2014,08,31,01,19,12.60
2014,08,31,01,20,12.60
2014,08,31,01,21,12.60
2014,08,31,01,22,12.60
2014,08,31,01,23,12.50
2014,08,31,01,24,12.50
2014,08,31,01,25,12.50
2014,08,31,01,26,12.50
2014,08,31,01,27,12.50
2014,08,31,01,28,12.50
2014,08,31,01,29,12.40
2014,08,31,01,30,12.40
2014,08,31,01,31,12.40
2014,08,31,01,32,12.40
2014,08,31,01,33,12.40
2014,08,31,01,34,12.40
2014,08,31,01,35,12.40
2014,08,31,01,36,12.40
2014,08,31,01,37,12.40
2014,08,31,01,38,12.30
2014,08,31,01,39,12.30
2014,08,31,01,40,12.30
2014,08,31,01,41,12.30
2014,08,31,01,42,12.30
2014,08,31,01,43,12.30
2014,08,31,01,44,12.30
2014,08,31,01,45,12.30
2014,08,31,01,46,12.30
2014,08,31,01,47,12.30
2014,08,31,01,48,12.30
2014,08,31,01,49,12.30
2014,08,31,01,50,12.30
2014,08,31,01,51,12.30
2014,08,31,01,52,12.30
2014,08,31,01,53,12.30
2014,08,31,01,54,12.30
2014,08,31,01,55,12.20
2014,08,31,01,56,12.20
2014,08,31,01,57,12.20
2014,08,31,01,58,12.20
2014,08,31,01,59,12.20
2014,08,31,02,00,12.20
2014,08,31,02,01,12.10
2014,08,31,02,02,12.10
2014,08,31,02,03,12.10
2014,08,31,02,04,12.10
2014,08,31,02,05,12.10
2014,08,31,02,06,12.10
2014,08,31,02,07,12.10
2014,08,31,02,08,12.10
2014,08,31,02,09,12.10
2014,08,31,02,10,12.10
2014,08,31,02,11,12.10
2014,08,31,02,12,12.10
2014,08,31,02,13,12.10
2014,08,31,02,14,12.10
2014,08,31,02,15,12.00
2014,08,31,02,16,12.00
2014,08,31,02,17,12.00
2014,08,31,02,18,12.00
2014,08,31,02,19,12.00
2014,08,31,02,20,12.00
2014,08,31,02,21,12.00
2014,08,31,02,22,12.00
2014,08,31,02,23,12.00
2014,08,31,02,24,11.90
2014,08,31,02,25,12.00
2014,08,31,02,26,12.00
2014,08,31,02,27,12.00
2014,08,31,02,28,12.00
2014,08,31,02,29,12.00
2014,08,31,02,30,12.00
2014,08,31,02,31,11.90
2014,08,31,02,32,11.90
2014,08,31,02,33,11.90
2014,08,31,02,34,12.00
2014,08,31,02,35,12.00
2014,08,31,02,36,11.90
2014,08,31,02,37,12.00
2014,08,31,02,38,12.00
2014,08,31,02,39,12.00
2014,08,31,02,40,12.00
2014,08,31,02,41,12.00
2014,08,31,02,42,12.00
2014,08,31,02,43,12.00
2014,08,31,02,44,12.00
2014,08,31,02,45,12.00
2014,08,31,02,46,12.00
2014,08,31,02,47,12.00
2014,08,31,02,48,12.00
2014,08,31,02,49,12.00
2014,08,31,02,50,12.00
2014,08,31,02,51,12.00
2014,08,31,02,52,11.90
2014,08,31,02,53,11.90
2014,08,31,02,54,11.90
2014,08,31,02,55,11.90
2014,08,31,02,56,11.90
2014,08,31,02,57,11.90
2014,08,31,02,58,11.80
2014,08,31,02,59,11.80
2014,08,31,03,00,11.80
2014,08,31,03,01,11.80
2014,08,31,03,02,11.80
2014,08,31,03,03,11.80
2014,08,31,03,04,11.80
2014,08,31,03,05,11.80
2014,08,31,03,06,11.80
2014,08,31,03,07,11.80
2014,08,31,03,08,11.90
2014,08,31,03,09,11.90
2014,08,31,03,10,11.90
2014,08,31,03,11,11.90
2014,08,31,03,12,12.00
2014,08,31,03,13,12.00
2014,08,31,03,14,12.00
2014,08,31,03,15,12.00
2014,08,31,03,16,12.10
2014,08,31,03,17,12.10
2014,08,31,03,18,12.10
2014,08,31,03,19,12.10
2014,08,31,03,20,12.10
2014,08,31,03,21,12.20
2014,08,31,03,22,12.20
2014,08,31,03,23,12.20
2014,08,31,03,24,12.20
2014,08,31,03,25,12.20
2014,08,31,03,26,12.20
2014,08,31,03,27,12.20
2014,08,31,03,28,12.20
2014,08,31,03,29,12.20
2014,08,31,03,30,12.20
2014,08,31,03,31,12.20
2014,08,31,03,32,12.20
2014,08,31,03,33,12.20
2014,08,31,03,34,12.20
2014,08,31,03,35,12.20
2014,08,31,03,36,12.30
2014,08,31,03,37,12.30
2014,08,31,03,38,12.30
2014,08,31,03,39,12.30
2014,08,31,03,40,12.30
2014,08,31,03,41,12.30
2014,08,31,03,42,12.30
2014,08,31,03,43,12.30
2014,08,31,03,44,12.30
2014,08,31,03,45,12.30
2014,08,31,03,46,12.30
2014,08,31,03,47,12.20
2014,08,31,03,48,12.20
2014,08,31,03,49,12.20
2014,08,31,03,50,12.20
2014,08,31,03,51,12.20
2014,08,31,03,52,12.20
2014,08,31,03,53,12.20
2014,08,31,03,54,12.20
2014,08,31,03,55,12.10
2014,08,31,03,56,12.10
2014,08,31,03,57,12.10
2014,08,31,03,58,12.10
2014,08,31,03,59,12.10
2014,08,31,04,00,12.10
2014,08,31,04,01,12.10
2014,08,31,04,02,12.10
2014,08,31,04,03,12.10
2014,08,31,04,04,12.10
2014,08,31,04,05,12.10
2014,08,31,04,06,12.10
2014,08,31,04,07,12.20
2014,08,31,04,08,12.20
2014,08,31,04,09,12.20
2014,08,31,04,10,12.20
2014,08,31,04,11,12.20
2014,08,31,04,12,12.20
2014,08,31,04,13,12.20
2014,08,31,04,14,12.20
2014,08,31,04,15,12.20
2014,08,31,04,16,12.20
2014,08,31,04,17,12.20
2014,08,31,04,18,12.20
2014,08,31,04,19,12.20
2014,08,31,04,20,12.30
2014,08,31,04,21,12.30
2014,08,31,04,22,12.30
2014,08,31,04,23,12.30
2014,08,31,04,24,12.30
2014,08,31,04,25,12.30
2014,08,31,04,26,12.30
2014,08,31,04,27,12.30
2014,08,31,04,28,12.30
2014,08,31,04,29,12.30
2014,08,31,04,30,12.30
2014,08,31,04,31,12.40
2014,08,31,04,32,12.40
2014,08,31,04,33,12.40
2014,08,31,04,34,12.40
2014,08,31,04,35,12.40
2014,08,31,04,36,12.40
2014,08,31,04,37,12.40
2014,08,31,04,38,12.40
2014,08,31,04,39,12.40
2014,08,31,04,40,12.40
2014,08,31,04,41,12.40
2014,08,31,04,42,12.40
2014,08,31,04,43,12.30
2014,08,31,04,44,12.30
2014,08,31,04,45,12.30
2014,08,31,04,46,12.30
2014,08,31,04,47,12.30
2014,08,31,04,48,12.20
2014,08,31,04,49,12.20
2014,08,31,04,50,12.20
2014,08,31,04,51,12.20
2014,08,31,04,52,12.20
2014,08,31,04,53,12.20
2014,08,31,04,54,12.20
2014,08,31,04,55,12.20
2014,08,31,04,56,12.20
2014,08,31,04,57,12.20
2014,08,31,04,58,12.10
2014,08,31,04,59,12.10
2014,08,31,05,00,12.10
2014,08,31,05,01,12.10
2014,08,31,05,02,12.10
2014,08,31,05,03,12.10
2014,08,31,05,04,12.10
2014,08,31,05,05,12.10
2014,08,31,05,06,12.10
2014,08,31,05,07,12.10
2014,08,31,05,08,12.10
2014,08,31,05,09,12.10
2014,08,31,05,10,12.10
2014,08,31,05,11,12.10
2014,08,31,05,12,12.00
2014,08,31,05,13,12.00
2014,08,31,05,14,12.00
2014,08,31,05,15,12.00
2014,08,31,05,16,12.00
2014,08,31,05,17,12.00
2014,08,31,05,18,12.00
2014,08,31,05,19,12.00
2014,08,31,05,20,12.00
2014,08,31,05,21,12.00
2014,08,31,05,22,12.00
2014,08,31,05,23,12.00
2014,08,31,05,24,12.00
2014,08,31,05,25,12.00
2014,08,31,05,26,12.00
2014,08,31,05,27,12.00
2014,08,31,05,28,12.00
2014,08,31,05,29,12.00
2014,08,31,05,30,12.00
2014,08,31,05,31,12.10
2014,08,31,05,32,12.00
2014,08,31,05,33,12.10
2014,08,31,05,34,12.10
2014,08,31,05,35,12.10
2014,08,31,05,36,12.10
2014,08,31,05,37,12.10
2014,08,31,05,38,12.10
2014,08,31,05,39,12.10
2014,08,31,05,40,12.10
2014,08,31,05,41,12.10
2014,08,31,05,42,12.10
2014,08,31,05,43,12.10
2014,08,31,05,44,12.10
2014,08,31,05,45,12.10
2014,08,31,05,46,12.10
2014,08,31,05,47,12.10
2014,08,31,05,48,12.10
2014,08,31,05,49,12.10
2014,08,31,05,50,12.10
2014,08,31,05,51,12.10
2014,08,31,05,52,12.10
2014,08,31,05,53,12.10
2014,08,31,05,54,12.10
2014,08,31,05,55,12.10
2014,08,31,05,56,12.10
2014,08,31,05,57,12.10
2014,08,31,05,58,12.10
2014,08,31,05,59,12.10
2014,08,31,06,00,12.10
2014,08,31,06,01,12.10
2014,08,31,06,02,12.10
2014,08,31,06,03,12.10
2014,08,31,06,04,12.10
2014,08,31,06,05,12.00
2014,08,31,06,06,12.00
2014,08,31,06,07,12.10
2014,08,31,06,08,12.10
2014,08,31,06,09,12.10
2014,08,31,06,10,12.10
2014,08,31,06,11,12.10
2014,08,31,06,12,12.10
2014,08,31,06,13,12.10
2014,08,31,06,14,12.10
2014,08,31,06,15,12.10
2014,08,31,06,16,12.10
2014,08,31,06,17,12.10
2014,08,31,06,18,12.10
2014,08,31,06,19,12.10
2014,08,31,06,20,12.10
2014,08,31,06,21,12.10
2014,08,31,06,22,12.10
2014,08,31,06,23,12.10
2014,08,31,06,24,12.10
2014,08,31,06,25,12.10
2014,08,31,06,26,12.10
2014,08,31,06,27,12.10
2014,08,31,06,28,12.10
2014,08,31,06,29,12.10
2014,08,31,06,30,12.10
2014,08,31,06,31,12.10
2014,08,31,06,32,12.10
2014,08,31,06,33,12.10
2014,08,31,06,34,12.10
2014,08,31,06,35,12.10
2014,08,31,06,36,12.10
2014,08,31,06,37,12.10
2014,08,31,06,38,12.10
2014,08,31,06,39,12.10
2014,08,31,06,40,12.10
2014,08,31,06,41,12.10
2014,08,31,06,42,12.10
2014,08,31,06,43,12.10
2014,08,31,06,44,12.10
2014,08,31,06,45,12.10
2014,08,31,06,46,12.10
2014,08,31,06,47,12.10
2014,08,31,06,48,12.10
2014,08,31,06,49,12.10
2014,08,31,06,50,12.10
2014,08,31,06,51,12.10
2014,08,31,06,52,12.00
2014,08,31,06,53,12.00
2014,08,31,06,54,12.00
2014,08,31,06,55,12.00
2014,08,31,06,56,12.00
2014,08,31,06,57,12.00
2014,08,31,06,58,12.00
2014,08,31,06,59,12.00
2014,08,31,07,00,12.00
2014,08,31,07,01,12.00
2014,08,31,07,02,12.00
2014,08,31,07,03,12.00
2014,08,31,07,04,11.90
2014,08,31,07,05,11.90
2014,08,31,07,06,11.90
2014,08,31,07,07,11.90
2014,08,31,07,08,11.90
2014,08,31,07,09,11.90
2014,08,31,07,10,11.90
2014,08,31,07,11,11.90
2014,08,31,07,12,11.90
2014,08,31,07,13,12.00
2014,08,31,07,14,12.00
2014,08,31,07,15,12.00
2014,08,31,07,16,12.00
2014,08,31,07,17,12.00
2014,08,31,07,18,12.00
2014,08,31,07,19,12.00
2014,08,31,07,20,12.00
2014,08,31,07,21,12.00
2014,08,31,07,22,12.00
2014,08,31,07,23,12.00
2014,08,31,07,24,12.00
2014,08,31,07,25,12.10
2014,08,31,07,26,12.10
2014,08,31,07,27,12.10
2014,08,31,07,28,12.10
2014,08,31,07,29,12.10
2014,08,31,07,30,12.20
2014,08,31,07,31,12.20
2014,08,31,07,32,12.20
2014,08,31,07,33,12.20
2014,08,31,07,34,12.20
2014,08,31,07,35,12.20
2014,08,31,07,36,12.30
2014,08,31,07,37,12.30
2014,08,31,07,38,12.30
2014,08,31,07,39,12.30
2014,08,31,07,40,12.30
2014,08,31,07,41,12.40
2014,08,31,07,42,12.40
2014,08,31,07,43,12.40
2014,08,31,07,44,12.40
2014,08,31,07,45,12.40
2014,08,31,07,46,12.40
2014,08,31,07,47,12.50
2014,08,31,07,48,12.50
2014,08,31,07,49,12.50
2014,08,31,07,50,12.60
2014,08,31,07,51,12.60
2014,08,31,07,52,12.60
2014,08,31,07,53,12.60
2014,08,31,07,54,12.60
2014,08,31,07,55,12.70
2014,08,31,07,56,12.70
2014,08,31,07,57,12.70
2014,08,31,07,58,12.70
2014,08,31,07,59,12.70
2014,08,31,08,00,12.80
2014,08,31,08,01,12.80
2014,08,31,08,02,12.80
2014,08,31,08,03,12.80
2014,08,31,08,04,12.80
2014,08,31,08,05,12.80
2014,08,31,08,06,12.90
2014,08,31,08,07,12.90
2014,08,31,08,08,12.90
2014,08,31,08,09,12.90
2014,08,31,08,10,12.90
2014,08,31,08,11,13.00
2014,08,31,08,12,13.00
2014,08,31,08,13,13.00
2014,08,31,08,14,13.00
2014,08,31,08,15,13.10
2014,08,31,08,16,13.10
2014,08,31,08,17,13.10
2014,08,31,08,18,13.20
2014,08,31,08,19,13.20
2014,08,31,08,20,13.30
2014,08,31,08,21,13.30
2014,08,31,08,22,13.30
2014,08,31,08,23,13.30
2014,08,31,08,24,13.40
2014,08,31,08,25,13.40
2014,08,31,08,26,13.40
2014,08,31,08,27,13.40
2014,08,31,08,28,13.40
2014,08,31,08,29,13.40
2014,08,31,08,30,13.40
2014,08,31,08,31,13.40
2014,08,31,08,32,13.50
2014,08,31,08,33,13.50
2014,08,31,08,34,13.50
2014,08,31,08,35,13.50
2014,08,31,08,36,13.50
2014,08,31,08,37,13.60
2014,08,31,08,38,13.60
2014,08,31,08,39,13.60
2014,08,31,08,40,13.60
2014,08,31,08,41,13.60
2014,08,31,08,42,13.70
2014,08,31,08,43,13.70
2014,08,31,08,44,13.70
2014,08,31,08,45,13.70
2014,08,31,08,46,13.70
2014,08,31,08,47,13.80
2014,08,31,08,48,13.80
2014,08,31,08,49,13.80
2014,08,31,08,50,13.80
2014,08,31,08,51,13.90
2014,08,31,08,52,13.90
2014,08,31,08,53,13.90
2014,08,31,08,54,13.90
2014,08,31,08,55,13.90
2014,08,31,08,56,14.00
2014,08,31,08,57,14.00
2014,08,31,08,58,14.10
2014,08,31,08,59,14.10
2014,08,31,09,00,14.10
2014,08,31,09,01,14.10
2014,08,31,09,02,14.10
2014,08,31,09,03,14.20
2014,08,31,09,04,14.20
2014,08,31,09,05,14.20
2014,08,31,09,06,14.20
2014,08,31,09,07,14.20
2014,08,31,09,08,14.20
2014,08,31,09,09,14.30
2014,08,31,09,10,14.30
2014,08,31,09,11,14.30
2014,08,31,09,12,14.30
2014,08,31,09,13,14.30
2014,08,31,09,14,14.30
2014,08,31,09,15,14.30
2014,08,31,09,16,14.40
2014,08,31,09,17,14.40
2014,08,31,09,18,14.40
2014,08,31,09,19,14.40
2014,08,31,09,20,14.40
2014,08,31,09,21,14.40
2014,08,31,09,22,14.50
2014,08,31,09,23,14.50
2014,08,31,09,24,14.50
2014,08,31,09,25,14.60
2014,08,31,09,26,14.60
2014,08,31,09,27,14.60
2014,08,31,09,28,14.60
2014,08,31,09,29,14.60
2014,08,31,09,30,14.60
2014,08,31,09,31,14.70
2014,08,31,09,32,14.70
2014,08,31,09,33,14.70
2014,08,31,09,34,14.80
2014,08,31,09,35,14.80
2014,08,31,09,36,14.80
2014,08,31,09,37,14.90
2014,08,31,09,38,14.90
2014,08,31,09,39,14.90
2014,08,31,09,40,15.00
2014,08,31,09,41,15.00
2014,08,31,09,42,15.10
2014,08,31,09,43,15.10
2014,08,31,09,44,15.10
2014,08,31,09,45,15.20
2014,08,31,09,46,15.20
2014,08,31,09,47,15.20
2014,08,31,09,48,15.30
2014,08,31,09,49,15.30
2014,08,31,09,50,15.30
2014,08,31,09,51,15.30
2014,08,31,09,52,15.30
2014,08,31,09,53,15.30
2014,08,31,09,54,15.30
2014,08,31,09,55,15.30
2014,08,31,09,56,15.40
2014,08,31,09,57,15.40
2014,08,31,09,58,15.40
2014,08,31,09,59,15.40
2014,08,31,10,00,15.40
2014,08,31,10,01,15.40
2014,08,31,10,02,15.40
2014,08,31,10,03,15.50
2014,08,31,10,04,15.60
2014,08,31,10,05,15.60
2014,08,31,10,06,15.60
2014,08,31,10,07,15.60
2014,08,31,10,08,15.70
2014,08,31,10,09,15.70
2014,08,31,10,10,15.70
2014,08,31,10,11,15.70
2014,08,31,10,12,15.70
2014,08,31,10,13,15.60
2014,08,31,10,14,15.60
2014,08,31,10,15,15.60
2014,08,31,10,16,15.60
2014,08,31,10,17,15.60
2014,08,31,10,18,15.70
2014,08,31,10,19,15.70
2014,08,31,10,20,15.70
2014,08,31,10,21,15.70
2014,08,31,10,22,15.70
2014,08,31,10,23,15.70
2014,08,31,10,24,15.70
2014,08,31,10,25,15.70
2014,08,31,10,26,15.70
2014,08,31,10,27,15.70
2014,08,31,10,28,15.70
2014,08,31,10,29,15.80
2014,08,31,10,30,15.80
2014,08,31,10,31,15.80
2014,08,31,10,32,15.80
2014,08,31,10,33,15.80
2014,08,31,10,34,15.80
2014,08,31,10,35,15.80
2014,08,31,10,36,15.80
2014,08,31,10,37,15.90
2014,08,31,10,38,15.90
2014,08,31,10,39,15.90
2014,08,31,10,40,15.90
2014,08,31,10,41,16.00
2014,08,31,10,42,16.00
2014,08,31,10,43,16.10
2014,08,31,10,44,16.10
2014,08,31,10,45,16.10
2014,08,31,10,46,16.20
2014,08,31,10,47,16.20
2014,08,31,10,48,16.30
2014,08,31,10,49,16.30
2014,08,31,10,50,16.30
2014,08,31,10,51,16.30
2014,08,31,10,52,16.30
2014,08,31,10,53,16.30
2014,08,31,10,54,16.30
2014,08,31,10,55,16.30
2014,08,31,10,56,16.30
2014,08,31,10,57,16.30
2014,08,31,10,58,16.30
2014,08,31,10,59,16.30
2014,08,31,11,00,16.30
2014,08,31,11,01,16.40
2014,08,31,11,02,16.40
2014,08,31,11,03,16.40
2014,08,31,11,04,16.40
2014,08,31,11,05,16.40
2014,08,31,11,06,16.40
2014,08,31,11,07,16.50
2014,08,31,11,08,16.50
2014,08,31,11,09,16.50
2014,08,31,11,10,16.50
2014,08,31,11,11,16.50
2014,08,31,11,12,16.40
2014,08,31,11,13,16.40
2014,08,31,11,14,16.30
2014,08,31,11,15,16.30
2014,08,31,11,16,16.30
2014,08,31,11,17,16.30
2014,08,31,11,18,16.30
2014,08,31,11,19,16.30
2014,08,31,11,20,16.20
2014,08,31,11,21,16.20
2014,08,31,11,22,16.20
2014,08,31,11,23,16.10
2014,08,31,11,24,16.10
2014,08,31,11,25,16.00
2014,08,31,11,26,15.90
2014,08,31,11,27,15.90
2014,08,31,11,28,15.80
2014,08,31,11,29,15.80
2014,08,31,11,30,15.80
2014,08,31,11,31,15.70
2014,08,31,11,32,15.70
2014,08,31,11,33,15.70
2014,08,31,11,34,15.70
2014,08,31,11,35,15.70
2014,08,31,11,36,15.70
2014,08,31,11,37,15.70
2014,08,31,11,38,15.70
2014,08,31,11,39,15.70
2014,08,31,11,40,15.80
2014,08,31,11,41,15.80
2014,08,31,11,42,15.80
2014,08,31,11,43,15.80
2014,08,31,11,44,15.90
2014,08,31,11,45,16.00
2014,08,31,11,46,16.00
2014,08,31,11,47,16.10
2014,08,31,11,48,16.10
2014,08,31,11,49,16.10
2014,08,31,11,50,16.20
2014,08,31,11,51,16.20
2014,08,31,11,52,16.30
2014,08,31,11,53,16.30
2014,08,31,11,54,16.30
2014,08,31,11,55,16.30
2014,08,31,11,56,16.30
2014,08,31,11,57,16.30
2014,08,31,11,58,16.30
2014,08,31,11,59,16.30
2014,08,31,12,00,16.40
2014,08,31,12,01,16.40
2014,08,31,12,02,16.50
2014,08,31,12,03,16.60
2014,08,31,12,04,16.60
2014,08,31,12,05,16.70
2014,08,31,12,06,16.80
2014,08,31,12,07,16.80
2014,08,31,12,08,16.90
2014,08,31,12,09,17.00
2014,08,31,12,10,17.10
2014,08,31,12,11,17.10
2014,08,31,12,12,17.20
2014,08,31,12,13,17.30
2014,08,31,12,14,17.30
2014,08,31,12,15,17.40
2014,08,31,12,16,17.50
2014,08,31,12,17,17.60
2014,08,31,12,18,17.70
2014,08,31,12,19,17.80
2014,08,31,12,20,17.90
2014,08,31,12,21,17.90
2014,08,31,12,22,17.90
2014,08,31,12,23,17.90
2014,08,31,12,24,17.90
2014,08,31,12,25,17.90
2014,08,31,12,26,17.90
2014,08,31,12,27,17.90
2014,08,31,12,28,17.90
2014,08,31,12,29,18.00
2014,08,31,12,30,18.00
2014,08,31,12,31,17.90
2014,08,31,12,32,17.90
2014,08,31,12,33,17.90
2014,08,31,12,34,17.90
2014,08,31,12,35,17.80
2014,08,31,12,36,17.80
2014,08,31,12,37,17.80
2014,08,31,12,38,17.80
2014,08,31,12,39,17.70
2014,08,31,12,40,17.70
2014,08,31,12,41,17.60
2014,08,31,12,42,17.60
2014,08,31,12,43,17.60
2014,08,31,12,44,17.60
2014,08,31,12,45,17.60
2014,08,31,12,46,17.60
2014,08,31,12,47,17.60
2014,08,31,12,48,17.70
2014,08,31,12,49,17.70
2014,08,31,12,50,17.70
2014,08,31,12,51,17.80
2014,08,31,12,52,17.70
2014,08,31,12,53,17.70
2014,08,31,12,54,17.70
2014,08,31,12,55,17.70
2014,08,31,12,56,17.70
2014,08,31,12,57,17.70
2014,08,31,12,58,17.70
2014,08,31,12,59,17.70
2014,08,31,13,00,17.70
2014,08,31,13,01,17.70
2014,08,31,13,02,17.70
2014,08,31,13,03,17.70
2014,08,31,13,04,17.70
2014,08,31,13,05,17.80
2014,08,31,13,06,17.80
2014,08,31,13,07,17.80
2014,08,31,13,08,17.80
2014,08,31,13,09,17.80
2014,08,31,13,10,17.80
2014,08,31,13,11,17.70
2014,08,31,13,12,17.70
2014,08,31,13,13,17.70
2014,08,31,13,14,17.70
2014,08,31,13,15,17.70
2014,08,31,13,16,17.70
2014,08,31,13,17,17.60
2014,08,31,13,18,17.60
2014,08,31,13,19,17.60
2014,08,31,13,20,17.50
2014,08,31,13,21,17.60
2014,08,31,13,22,17.50
2014,08,31,13,23,17.60
2014,08,31,13,24,17.60
2014,08,31,13,25,17.50
2014,08,31,13,26,17.50
2014,08,31,13,27,17.50
2014,08,31,13,28,17.60
2014,08,31,13,29,17.60
2014,08,31,13,30,17.70
2014,08,31,13,31,17.70
2014,08,31,13,32,17.70
2014,08,31,13,33,17.60
2014,08,31,13,34,17.60
2014,08,31,13,35,17.60
2014,08,31,13,36,17.60
2014,08,31,13,37,17.70
2014,08,31,13,38,17.70
2014,08,31,13,39,17.70
2014,08,31,13,40,17.80
2014,08,31,13,41,17.90
2014,08,31,13,42,17.90
2014,08,31,13,43,18.00
2014,08,31,13,44,18.00
2014,08,31,13,45,18.10
2014,08,31,13,46,18.20
2014,08,31,13,47,18.20
2014,08,31,13,48,18.20
2014,08,31,13,49,18.20
2014,08,31,13,50,18.20
2014,08,31,13,51,18.20
2014,08,31,13,52,18.20
2014,08,31,13,53,18.20
2014,08,31,13,54,18.20
2014,08,31,13,55,18.20
2014,08,31,13,56,18.20
2014,08,31,13,57,18.20
2014,08,31,13,58,18.20
2014,08,31,13,59,18.20
2014,08,31,14,00,18.20
2014,08,31,14,01,18.20
2014,08,31,14,02,18.30
2014,08,31,14,03,18.30
2014,08,31,14,04,18.30
2014,08,31,14,05,18.30
2014,08,31,14,06,18.30
2014,08,31,14,07,18.30
2014,08,31,14,08,18.40
2014,08,31,14,09,18.40
2014,08,31,14,10,18.40
2014,08,31,14,11,18.40
2014,08,31,14,12,18.40
2014,08,31,14,13,18.50
2014,08,31,14,14,18.50
2014,08,31,14,15,18.50
2014,08,31,14,16,18.50
2014,08,31,14,17,18.40
2014,08,31,14,18,18.40
2014,08,31,14,19,18.40
2014,08,31,14,20,18.50
2014,08,31,14,21,18.50
2014,08,31,14,22,18.50
2014,08,31,14,23,18.50
2014,08,31,14,24,18.50
2014,08,31,14,25,18.40
2014,08,31,14,26,18.40
2014,08,31,14,27,18.30
2014,08,31,14,28,18.30
2014,08,31,14,29,18.30
2014,08,31,14,30,18.30
2014,08,31,14,31,18.30
2014,08,31,14,32,18.30
2014,08,31,14,33,18.40
2014,08,31,14,34,18.40
2014,08,31,14,35,18.30
2014,08,31,14,36,18.30
2014,08,31,14,37,18.30
2014,08,31,14,38,18.30
2014,08,31,14,39,18.30
2014,08,31,14,40,18.30
2014,08,31,14,41,18.30
2014,08,31,14,42,18.20
2014,08,31,14,43,18.20
2014,08,31,14,44,18.10
2014,08,31,14,45,18.10
2014,08,31,14,46,18.10
2014,08,31,14,47,18.00
2014,08,31,14,48,18.00
2014,08,31,14,49,17.90
2014,08,31,14,50,17.90
2014,08,31,14,51,17.90
2014,08,31,14,52,17.80
2014,08,31,14,53,17.80
2014,08,31,14,54,17.80
2014,08,31,14,55,17.70
2014,08,31,14,56,17.70
2014,08,31,14,57,17.70
2014,08,31,14,58,17.60
2014,08,31,14,59,17.60
2014,08,31,15,00,17.60
2014,08,31,15,01,17.60
2014,08,31,15,02,17.60
2014,08,31,15,03,17.60
2014,08,31,15,04,17.50
2014,08,31,15,05,17.50
2014,08,31,15,06,17.50
2014,08,31,15,07,17.50
2014,08,31,15,08,17.50
2014,08,31,15,09,17.50
2014,08,31,15,10,17.60
2014,08,31,15,11,17.60
2014,08,31,15,12,17.60
2014,08,31,15,13,17.60
2014,08,31,15,14,17.60
2014,08,31,15,15,17.60
2014,08,31,15,16,17.70
2014,08,31,15,17,17.70
2014,08,31,15,18,17.70
2014,08,31,15,19,17.70
2014,08,31,15,20,17.70
2014,08,31,15,21,17.70
2014,08,31,15,22,17.70
2014,08,31,15,23,17.70
2014,08,31,15,24,17.80
2014,08,31,15,25,17.80
2014,08,31,15,26,17.80
2014,08,31,15,27,17.90
2014,08,31,15,28,18.00
2014,08,31,15,29,18.00
2014,08,31,15,30,18.10
2014,08,31,15,31,18.20
2014,08,31,15,32,18.20
2014,08,31,15,33,18.10
2014,08,31,15,34,18.10
2014,08,31,15,35,18.10
2014,08,31,15,36,18.00
2014,08,31,15,37,18.00
2014,08,31,15,38,18.00
2014,08,31,15,39,18.00
2014,08,31,15,40,18.00
2014,08,31,15,41,18.00
2014,08,31,15,42,18.10
2014,08,31,15,43,18.10
2014,08,31,15,44,18.10
2014,08,31,15,45,18.10
2014,08,31,15,46,18.10
2014,08,31,15,47,18.10
2014,08,31,15,48,18.10
2014,08,31,15,49,18.10
2014,08,31,15,50,18.10
2014,08,31,15,51,18.10
2014,08,31,15,52,18.10
2014,08,31,15,53,18.20
2014,08,31,15,54,18.20
2014,08,31,15,55,18.30
2014,08,31,15,56,18.30
2014,08,31,15,57,18.30
2014,08,31,15,58,18.30
2014,08,31,15,59,18.10
2014,08,31,16,00,18.10
2014,08,31,16,01,18.00
2014,08,31,16,02,17.90
2014,08,31,16,03,17.90
2014,08,31,16,04,17.80
2014,08,31,16,05,17.80
2014,08,31,16,06,17.80
2014,08,31,16,07,17.90
2014,08,31,16,08,17.90
2014,08,31,16,09,17.90
2014,08,31,16,10,17.90
2014,08,31,16,11,17.90
2014,08,31,16,12,18.00
2014,08,31,16,13,18.00
2014,08,31,16,14,18.00
2014,08,31,16,15,18.00
2014,08,31,16,16,18.00
2014,08,31,16,17,18.10
2014,08,31,16,18,18.20
2014,08,31,16,19,18.30
2014,08,31,16,20,18.30
2014,08,31,16,21,18.40
2014,08,31,16,22,18.50
2014,08,31,16,23,18.60
2014,08,31,16,24,18.60
2014,08,31,16,25,18.50
2014,08,31,16,26,18.40
2014,08,31,16,27,18.40
2014,08,31,16,28,18.30
2014,08,31,16,29,18.20
2014,08,31,16,30,18.20
2014,08,31,16,31,18.20
2014,08,31,16,32,18.20
2014,08,31,16,33,18.20
2014,08,31,16,34,18.10
2014,08,31,16,35,18.10
2014,08,31,16,36,18.10
2014,08,31,16,37,18.10
2014,08,31,16,38,18.10
2014,08,31,16,39,18.10
2014,08,31,16,40,18.00
2014,08,31,16,41,18.00
2014,08,31,16,42,18.10
2014,08,31,16,43,18.10
2014,08,31,16,44,18.10
2014,08,31,16,45,18.10
2014,08,31,16,46,18.10
2014,08,31,16,47,18.10
2014,08,31,16,48,18.10
2014,08,31,16,49,18.10
2014,08,31,16,50,18.10
2014,08,31,16,51,18.10
2014,08,31,16,52,18.20
2014,08,31,16,53,18.20
2014,08,31,16,54,18.10
2014,08,31,16,55,18.10
2014,08,31,16,56,18.10
2014,08,31,16,57,18.00
2014,08,31,16,58,18.00
2014,08,31,16,59,18.00
2014,08,31,17,00,18.00
2014,08,31,17,01,17.90
2014,08,31,17,02,17.90
2014,08,31,17,03,17.90
2014,08,31,17,04,17.90
2014,08,31,17,05,17.80
2014,08,31,17,06,17.80
2014,08,31,17,07,17.80
2014,08,31,17,08,17.80
2014,08,31,17,09,17.80
2014,08,31,17,10,17.80
2014,08,31,17,11,17.80
2014,08,31,17,12,17.80
2014,08,31,17,13,17.80
2014,08,31,17,14,17.70
2014,08,31,17,15,17.60
2014,08,31,17,16,17.60
2014,08,31,17,17,17.50
2014,08,31,17,18,17.40
2014,08,31,17,19,17.40